User: anonymous
Location: Caltech
(34.1382°N, 118.1253°W)
Time: 20:20:49
(UTC-07:00)
Language:

Oscar 19 - Orbit

View from above orbital plane
View from above orbital plane
View from above satellite
View from above satellite

Ground track
Ground track

The orbit data is extracted from the following two-line orbital elements,

1 20442U 90005G   14211.79813786  .00000091  00000-0  49188-4 0   179
2 20442 098.4785 148.8397 0012093 025.6051 334.5729 14.32572355280920
Epoch (UTC): 30 July 2014 19:09:19
Eccentricity: 0.0012093
inclination: 98.4785°
perigee height: 774 km
apogee height: 792 km
right ascension of ascending node: 148.8397°
argument of perigee: 25.6051°
revolutions per day: 14.32572355
mean anomaly at epoch: 334.5729°
orbit number at epoch: 28092

The dashed part of the orbit path shows where the satellite is in the earth's shadow,  

DLR